FALCON 9 R/B (43563 NORAD) Tracking and Keplerian Element Data

This shows tracking and keplerian element data for the satellite.

Feedback or suggestion? Click here.




ElementValue
Catalog43563
NameFALCON 9 R/B
Epoch Orbit130
Epoch Day232.00688685
Epoch Year2018
RAAN195.2852
Inclination27.0068
Eccentricity0.5711393
Argument of Perigee216.4597
Mean Anonmoly86.0966
Mean Motion4.53212051
Decay Rate6.522E-05
L11 43563U 18059B 18232.00688685 .00006522 00000-0 44354-3 0 9999
L22 43563 27.0068 195.2852 5711393 216.4597 86.0966 4.53212051 1303

Live tracking and technical data element details for FALCON 9 R/B (NORAD 43563). FALCON 9 R/B can be tracked NOW for your location showing map with azimuth and elevation plus other details from your city location.

Track the satellite on the map from your city or location and see movement details for azimuth, elevation, latitude, longitude, range, height, and movement on the map or in text.







IsCatalogInMostPopularTable: catalog: 43563, numindb: 45
Update: records affected: 1



GetName: 43563 FALCON 9 R/B

Hit Count: updated at: Sat, 17 Nov 2018 02:53:25 GMT